TheGetRank SiteMap Page 6383
Home 6333 6334 6335 6336 6337 6338 6339 6340 6341 6342 6343 6344 6345 6346 6347 6348 6349 6350 6351 6352 6353 6354 6355 6356 6357 6358 6359 6360 6361 6362 6363 6364 6365 6366 6367 6368 6369 6370 6371 6372 6373 6374 6375 6376 6377 6378 6379 6380 6381 6382 6383 6384 6385 6386 6387 6388 6389 6390 6391 6392 6393 6394 6395 6396 6397 6398 6399 6400 6401 6402 6403 6404 6405 6406 6407 6408 6409 6410 6411 6412 6413 6414 6415 6416 6417 6418 6419 6420 6421 6422 6423 6424 6425 6426 6427 6428 6429 6430 6431 6432 6433
S.NO. Website Pagerank Alexa Rank Last Updated
6382000 galopex.org 0 No Rank 2012-01-15 07:46:04
6382001 en.keric.sk 0 15490643 2012-01-15 07:46:04
6382002 charles-marfan.com 0 10815944 2012-01-15 07:46:05
6382003 arthotel.hr 0 26599454 2012-01-15 07:46:09
6382004 nyxtune.com 0 No Rank 2012-01-15 07:46:10
6382005 tricocontracting.com 0 No Rank 2012-01-15 07:46:15
6382006 charlesrlux.com 0 22445046 2012-01-15 07:46:16
6382007 sakyuso.com 0 No Rank 2012-01-15 07:46:20
6382008 charmsandcrystals.com 0 8110351 2012-01-15 07:46:21
6382009 zf-transmissions.com 0 1658342 2012-01-15 07:46:26
6382010 reel9.co.uk 0 12822018 2012-01-15 07:46:28
6382011 chaseflooringamerica.com 0 No Rank 2012-01-15 07:46:29
6382012 iddesign.hr 0 No Rank 2012-01-15 07:46:32
6382013 xjliuxue.cn 0 No Rank 2012-01-15 07:46:32
6382014 chateaudechelivette.free.fr 0 No Rank 2012-01-15 07:46:34
6382015 vaghedi.com 0 No Rank 2012-01-15 07:46:34
6382016 tapcore.com 0 No Rank 2012-01-15 07:46:37
6382017 winhost01.isomedia.com 0 907807 2012-01-15 07:46:38
6382018 jegrady.com 0 No Rank 2012-01-15 07:46:39
6382019 chauffeurforyou.com 0 No Rank 2012-01-15 07:46:39
6382020 mengqing.cn 0 No Rank 2012-01-15 07:46:42
6382021 nmshome.com 0 No Rank 2012-01-15 07:46:45
6382022 wow.trucosiphone4.com 0 No Rank 2012-01-15 07:46:46
6382023 chefdejour.com 0 No Rank 2012-01-15 07:46:48
6382024 m-pay.co.in 0 No Rank 2012-01-15 07:46:49
6382025 wingsworldwide.org 0 25028229 2012-01-15 07:46:50
6382026 banvamua.vn 0 1212720 2012-01-15 07:46:51
6382027 armcross.ru 0 21740433 2012-01-15 07:46:54
6382028 usafton.com 0 No Rank 2012-01-15 07:46:54
6382029 newayst.com 0 10778195 2012-01-15 07:46:56
6382030 chennai7.com 0 4616034 2012-01-15 07:46:57
6382031 52glwx.com 0 No Rank 2012-01-15 07:47:00
6382032 lema.com.tr 0 27517587 2012-01-15 07:47:01
6382033 jazwear.com 0 16707458 2012-01-15 07:47:02
6382034 e992cheatwork.blogspot.com 0 2212185 2012-01-15 07:47:02
6382035 chez-papa.com 0 5758686 2012-01-15 07:47:04
6382036 fr.vzit.net 0 4902035 2012-01-15 07:47:05
6382037 dataxel.net 0 No Rank 2012-01-15 07:47:12
6382038 budaini.com 0 5038887 2012-01-15 07:47:16
6382039 chiechi.org 0 No Rank 2012-01-15 07:47:18
6382040 eavista.com 0 2917741 2012-01-15 07:47:18
6382041 chinamoonrestaurant.com 0 9410171 2012-01-15 07:47:22
6382042 barsoma.com 0 6059456 2012-01-15 07:47:25
6382043 cho-kyuhyun.com 0 No Rank 2012-01-15 07:47:28
6382044 joascout.se 0 13987310 2012-01-15 07:47:33
6382045 getdust.com 0 No Rank 2012-01-15 07:47:34
6382046 skpt.edu.my 0 7814104 2012-01-15 07:47:34
6382047 chrisministries.com 0 No Rank 2012-01-15 07:47:34
6382048 stenturi.ro 0 No Rank 2012-01-15 07:47:38
6382049 hiro-po.com 0 1702869 2012-01-15 07:47:38
6382050 chrisstead.com 0 23367961 2012-01-15 07:47:42
6382051 zirafka.com 0 9898147 2012-01-15 07:47:42
6382052 sanjian.org 0 No Rank 2012-01-15 07:47:43
6382053 christineschirmer.com 0 No Rank 2012-01-15 07:47:46
6382054 dldxedu.com 0 No Rank 2012-01-15 07:47:46
6382055 christospentzos.com 0 No Rank 2012-01-15 07:47:50
6382056 chromtech.com 0 5289610 2012-01-15 07:47:55
6382057 pizza10.net 0 26615977 2012-01-15 07:47:57
6382058 mayki8334.land.ru 0 35157 2012-01-15 07:47:57
6382059 jhhb.com.cn 0 No Rank 2012-01-15 07:48:02
6382060 nishgame.com 0 125237 2012-01-15 07:48:02
6382061 ciao-verlag.de 0 10403221 2012-01-15 07:48:04
6382062 skyglcs.com 0 No Rank 2012-01-15 07:48:05
6382063 sylshop.com 0 21485602 2012-01-15 07:48:10
6382064 ruteauto.ro 0 1615284 2012-01-15 07:48:10
6382065 cinoulelene.free.fr 0 23642364 2012-01-15 07:48:15
6382066 ojiro.co.jp 0 No Rank 2012-01-15 07:48:16
6382067 rstepos.com 0 9365199 2012-01-15 07:48:17
6382068 cjjohns.com 0 7079584 2012-01-15 07:48:21
6382069 i-penny.com 0 22452120 2012-01-15 07:48:23
6382070 mom-pop.net 0 No Rank 2012-01-15 07:48:24
6382071 bethump.org 0 No Rank 2012-01-15 07:48:26
6382072 120cxbi.info 0 No Rank 2012-01-15 07:48:31
6382073 think-b.com 0 No Rank 2012-01-15 07:48:31
6382074 paskoya.com 0 No Rank 2012-01-15 07:48:33
6382075 studio-l.md 0 7704855 2012-01-15 07:48:36
6382076 handctr.com 0 7411143 2012-01-15 07:48:42
6382077 mbmumma.com 0 22644310 2012-01-15 07:48:43
6382078 classicfencestaining.com 0 No Rank 2012-01-15 07:48:44
6382079 ezra-il.com 0 No Rank 2012-01-15 07:48:45
6382080 clearinfo.eu 0 No Rank 2012-01-15 07:48:49
6382081 murmana.net 0 No Rank 2012-01-15 07:48:49
6382082 wpbliss.com 0 194255 2012-01-15 07:48:51
6382083 lamacre.com 0 No Rank 2012-01-15 07:48:54
6382084 closet-geek.net 0 No Rank 2012-01-15 07:48:59
6382085 gaso555.com 0 13222136 2012-01-15 07:49:03
6382086 techinplanet.com 0 No Rank 2012-01-15 07:49:04
6382087 cloudcomputingdemo.net 0 No Rank 2012-01-15 07:49:05
6382088 cloverad.com 0 No Rank 2012-01-15 07:49:07
6382089 derdulla.de 0 No Rank 2012-01-15 07:49:12
6382090 imedia21.in 0 9899960 2012-01-15 07:49:12
6382091 ahmsadp.com 0 19372070 2012-01-15 07:49:18
6382092 cume.org.br 0 No Rank 2012-01-15 07:49:20
6382093 radiation-detector.org 0 No Rank 2012-01-15 07:49:21
6382094 coach-best.com 0 No Rank 2012-01-15 07:49:22
6382095 acas.com.br 0 No Rank 2012-01-15 07:49:26
6382096 abccoms.com 0 8923804 2012-01-15 07:49:28
6382097 cocinalavida.com 0 25893099 2012-01-15 07:49:30
6382098 coastalrealtygrp.net 0 25680577 2012-01-15 07:49:30
6382099 coffeyfeedtheneedy.org 0 No Rank 2012-01-15 07:49:35
6382100 crazymp3.tk 0 No Rank 2012-01-15 07:49:38
6382101 imdesign.in 0 No Rank 2012-01-15 07:49:38
6382102 ucuzcuu.com 0 8727083 2012-01-15 07:49:39
6382103 coherentspace.info 0 No Rank 2012-01-15 07:49:39
6382104 mamaring.jp 0 4069550 2012-01-15 07:49:43
6382105 anonymousexchange.com 0 No Rank 2012-01-15 07:49:46
6382106 kis.resb.de 0 No Rank 2012-01-15 07:49:46
6382107 collegestudentcreditcard.com 0 No Rank 2012-01-15 07:49:47
6382108 renerji.com 0 No Rank 2012-01-15 07:49:49
6382109 collegiatecouture.com 0 No Rank 2012-01-15 07:49:50
6382110 insydetech.com.au 0 8791869 2012-01-15 07:49:53
6382111 cologne-visit.de 0 9690275 2012-01-15 07:49:57
6382112 anonymousdownload.org 0 No Rank 2012-01-15 07:49:58
6382113 me-area.com 0 No Rank 2012-01-15 07:49:59
6382114 commaxonline.com 0 No Rank 2012-01-15 07:50:00
6382115 spb.thebrainstormweb.com 0 1083322 2012-01-15 07:50:00
6382116 tcfop44.net 0 19176770 2012-01-15 07:50:04
6382117 commercialrevaluation.com 0 No Rank 2012-01-15 07:50:06
6382118 pridemo.org 0 No Rank 2012-01-15 07:50:06
6382119 pbevents.me 0 No Rank 2012-01-15 07:50:09
6382120 computercrisissolutions.com 0 No Rank 2012-01-15 07:50:13
6382121 linkz2u.com 0 3946333 2012-01-15 07:50:15
6382122 id2.trucosiphone4.com 0 No Rank 2012-01-15 07:50:15
6382123 penkala.net 0 13074524 2012-01-15 07:50:18
6382124 computingreality.com 0 22093398 2012-01-15 07:50:19
6382125 job-guy.com 0 No Rank 2012-01-15 07:50:21
6382126 safecomm.ca 0 No Rank 2012-01-15 07:50:22
6382127 anonymousfilestorage.org 0 No Rank 2012-01-15 07:50:24
6382128 conchcountry.com 0 20563747 2012-01-15 07:50:27
6382129 conexusworld.com 0 4534876 2012-01-15 07:50:29
6382130 area-ad.com 0 No Rank 2012-01-15 07:50:30
6382131 confairs.com 0 2430231 2012-01-15 07:50:31
6382132 tai-kai.net 0 No Rank 2012-01-15 07:50:35
6382133 cong.net 0 No Rank 2012-01-15 07:50:36
6382134 confederatestatescurrency.com 0 No Rank 2012-01-15 07:50:36
6382135 ib-mager.de 0 No Rank 2012-01-15 07:50:36
6382136 078coat.com 0 No Rank 2012-01-15 07:50:36
6382137 anonymousfilestorage.com 0 No Rank 2012-01-15 07:50:36
6382138 contemplativeoutreach-co.org 0 23416941 2012-01-15 07:50:43
6382139 contemporaryfineartinternational.com 0 2071798 2012-01-15 07:50:44
6382140 anonymousfilestorage.net 0 No Rank 2012-01-15 07:50:50
6382141 converseskor.com 0 10316279 2012-01-15 07:50:53
6382142 cookiecart.org 0 10822435 2012-01-15 07:50:54
6382143 amanopet.jp 0 No Rank 2012-01-15 07:50:54
6382144 msmfest.com 0 No Rank 2012-01-15 07:50:56
6382145 anonymousgoogle.org 0 No Rank 2012-01-15 07:51:00
6382146 novo.com.pl 0 9554449 2012-01-15 07:51:01
6382147 coralcaine.com 0 No Rank 2012-01-15 07:51:02
6382148 nkbus.co.jp 0 No Rank 2012-01-15 07:51:03
6382149 ntrp.org.uk 0 25629484 2012-01-15 07:51:04
6382150 fdpc.org.uk 0 13206247 2012-01-15 07:51:07
6382151 core619.com 0 No Rank 2012-01-15 07:51:08
6382152 maisluz.com 0 No Rank 2012-01-15 07:51:14
6382153 corgiaustralia.com 0 No Rank 2012-01-15 07:51:15
6382154 3chains.org 0 No Rank 2012-01-15 07:51:20
6382155 corporatecoachingasia.net 0 No Rank 2012-01-15 07:51:22
6382156 e-sse.co.jp 0 No Rank 2012-01-15 07:51:23
6382157 correctinternational.com 0 No Rank 2012-01-15 07:51:24
6382158 anonymoushotmail.com 0 No Rank 2012-01-15 07:51:26
6382159 airport-selecao.de 0 No Rank 2012-01-15 07:51:27
6382160 airplanecounsel.com 0 No Rank 2012-01-15 07:51:28
6382161 rawlisa.com 0 No Rank 2012-01-15 07:51:29
6382162 syirfan.com 0 13216277 2012-01-15 07:51:30
6382163 chotnsf.org 0 No Rank 2012-01-15 07:51:31
6382164 cosmetique-ecologique.com 0 8334645 2012-01-15 07:51:32
6382165 cismotta.it 0 No Rank 2012-01-15 07:51:34
6382166 slinvest.hr 0 No Rank 2012-01-15 07:51:36
6382167 sdas.org.uk 0 9784862 2012-01-15 07:51:38
6382168 countyappraisaldistricts.org 0 No Rank 2012-01-15 07:51:39
6382169 anonymousgoogle.com 0 3742495 2012-01-15 07:51:39
6382170 courierwest.com 0 12603723 2012-01-15 07:51:39
6382171 ledpano.com 0 16847496 2012-01-15 07:51:42
6382172 usicorp.net 0 No Rank 2012-01-15 07:51:44
6382173 coursesforlife.com 0 12018353 2012-01-15 07:51:46
6382174 cover4your.com 0 3758781 2012-01-15 07:51:48
6382175 nichart.com 0 6572487 2012-01-15 07:51:49
6382176 scem.org.uk 0 No Rank 2012-01-15 07:51:50
6382177 craigsinternetlinks.com 0 No Rank 2012-01-15 07:51:52
6382178 seddonfoldfarm.co.uk 0 No Rank 2012-01-15 07:51:53
6382179 bnt-007.com 0 No Rank 2012-01-15 07:51:54
6382180 creativeconnectionsagency.com 0 No Rank 2012-01-15 07:51:55
6382181 stirsby.com 0 No Rank 2012-01-15 07:51:56
6382182 crestar.info 0 No Rank 2012-01-15 07:52:00
6382183 seoinnj.com 0 9556257 2012-01-15 07:52:03
6382184 shireremovals.co.uk 0 No Rank 2012-01-15 07:52:06
6382185 medifor.com 0 No Rank 2012-01-15 07:52:06
6382186 gfsclub.com 0 No Rank 2012-01-15 07:52:07
6382187 isis.biz.tr 0 No Rank 2012-01-15 07:52:10
6382188 crivitzpharmacy.com 0 No Rank 2012-01-15 07:52:10
6382189 bts-bts.com 0 No Rank 2012-01-15 07:52:22
6382190 saradip.com 0 No Rank 2012-01-15 07:52:27
6382191 eurokrby.sk 0 3899025 2012-01-15 07:52:28
6382192 simplyweb2.com 0 No Rank 2012-01-15 07:52:28
6382193 ldac.org.uk 0 No Rank 2012-01-15 07:52:29
6382194 cs2dg.webplus.net.pl 0 5798962 2012-01-15 07:52:30
6382195 cscomputing.biz 0 No Rank 2012-01-15 07:52:30
6382196 indique.com 0 5019938 2012-01-15 07:52:30
6382197 skoreit.com 0 73767 2012-01-15 07:52:33
6382198 apizwap.com 0 25609483 2012-01-15 07:52:34
6382199 philamfood.com 0 765242 2012-01-15 07:52:36
6382200 mwae.org.uk 0 No Rank 2012-01-15 07:52:38
6382201 beaty.co.uk 0 No Rank 2012-01-15 07:52:39
6382202 shutterperfection.co.uk 0 17369363 2012-01-15 07:52:40
6382203 ctpanrosario.com.ar 0 No Rank 2012-01-15 07:52:42
6382204 ahow.com.br 0 No Rank 2012-01-15 07:52:42
6382205 okna-tim.pl 0 No Rank 2012-01-15 07:52:43
6382206 comsitec.de 0 658378 2012-01-15 07:52:44
6382207 csryb.com 0 14862950 2012-01-15 07:52:45
6382208 zsvotice.cz 0 No Rank 2012-01-15 07:52:45
6382209 cuarentonesclub.com 0 No Rank 2012-01-15 07:52:47
6382210 ylvalve.com 0 14949411 2012-01-15 07:52:48
6382211 ski-board.co.uk 0 No Rank 2012-01-15 07:52:49
6382212 stil-ker.hr 0 No Rank 2012-01-15 07:52:51
6382213 cunninghamagency.com 0 No Rank 2012-01-15 07:52:51
6382214 omaroza.com 0 19982614 2012-01-15 07:52:52
6382215 womenshoescentrals.com 0 No Rank 2012-01-15 07:52:53
6382216 customcoachlimobuilders.com 0 10936648 2012-01-15 07:52:55
6382217 dayiedu.net 0 11212138 2012-01-15 07:52:59
6382218 cuyahogadems4pl.org 0 No Rank 2012-01-15 07:53:00
6382219 elsanra.com 0 No Rank 2012-01-15 07:53:00
6382220 cvjm-gomaringen.de 0 No Rank 2012-01-15 07:53:05
6382221 folprint.hu 0 12695566 2012-01-15 07:53:11
6382222 cynthiastarkey.com 0 No Rank 2012-01-15 07:53:13
6382223 cz-pera.cz 0 21062009 2012-01-15 07:53:15
6382224 szyuhong.cn 0 5199694 2012-01-15 07:53:17
6382225 dabur-dhanwantry.com 0 No Rank 2012-01-15 07:53:18
6382226 rdmfolie.cz 0 No Rank 2012-01-15 07:53:19
6382227 daikaffil.com 0 No Rank 2012-01-15 07:53:20
6382228 spencerbarclays.com 0 No Rank 2012-01-15 07:53:20
6382229 alkabas.net 0 No Rank 2012-01-15 07:53:23
6382230 dallastoyotadealer.us 0 15066689 2012-01-15 07:53:24
6382231 mazendo.com 0 No Rank 2012-01-15 07:53:26
6382232 kasario.com 0 26043678 2012-01-15 07:53:28
6382233 luj.pl 0 No Rank 2012-01-15 07:53:30
6382234 mywight.net 0 3574626 2012-01-15 07:53:31
6382235 dampersexpress.com 0 No Rank 2012-01-15 07:53:32
6382236 dami.one.free.fr 0 2602532 2012-01-15 07:53:33
6382237 fricity.com 0 No Rank 2012-01-15 07:53:34
6382238 hoc-fed.com 0 23319840 2012-01-15 07:53:37
6382239 danapape.com 0 No Rank 2012-01-15 07:53:37
6382240 akgiduo.com 0 13527593 2012-01-15 07:53:38
6382241 tamar.co.za 0 No Rank 2012-01-15 07:53:39
6382242 danielkreissl.com 0 No Rank 2012-01-15 07:53:42
6382243 apromaco.vn 0 6438226 2012-01-15 07:53:43
6382244 spursladies.co.uk 0 7350605 2012-01-15 07:53:45
6382245 dansei-keisei.com 0 No Rank 2012-01-15 07:53:46
6382246 tau-rus.com 0 5874061 2012-01-15 07:53:46
6382247 darquesemporium.com 0 No Rank 2012-01-15 07:53:48
6382248 pleksi.info 0 21871271 2012-01-15 07:53:52
6382249 dartretail.com 0 No Rank 2012-01-15 07:53:53
6382250 solpharm.hr 0 No Rank 2012-01-15 07:53:54
6382251 sav10ml.com 0 No Rank 2012-01-15 07:53:56
6382252 stanex.co.uk 0 No Rank 2012-01-15 07:53:57
6382253 data-miners.com 0 1336484 2012-01-15 07:53:57
6382254 dasteandassoc.com 0 No Rank 2012-01-15 07:54:03
6382255 daveforward.com 0 No Rank 2012-01-15 07:54:04
6382256 siw-wert.de 0 No Rank 2012-01-15 07:54:04
6382257 pusenjak.si 0 No Rank 2012-01-15 07:54:07
6382258 staceycomputerservices.com 0 25356857 2012-01-15 07:54:10
6382259 agnation.us 0 No Rank 2012-01-15 07:54:12
6382260 f1racing.rs 0 No Rank 2012-01-15 07:54:16
6382261 daybin.com 0 No Rank 2012-01-15 07:54:19
6382262 debanma.com 0 27100269 2012-01-15 07:54:21
6382263 igloo.co.uk 0 11487650 2012-01-15 07:54:21
6382264 stephen-gracey.com 0 No Rank 2012-01-15 07:54:23
6382265 debasishmukherjee.com 0 No Rank 2012-01-15 07:54:23
6382266 okobore.com 0 No Rank 2012-01-15 07:54:26
6382267 decequipment.com 0 No Rank 2012-01-15 07:54:26
6382268 decorativeconcretesolutions.biz 0 15840612 2012-01-15 07:54:27
6382269 radiowsw.de 0 No Rank 2012-01-15 07:54:31
6382270 suebourne.co.uk 0 No Rank 2012-01-15 07:54:34
6382271 complexe.ca 0 12893892 2012-01-15 07:54:35
6382272 wcparty.net 0 No Rank 2012-01-15 07:54:35
6382273 deeringlumber.com 0 No Rank 2012-01-15 07:54:36
6382274 tanakou.com 0 No Rank 2012-01-15 07:54:40
6382275 defa-sternstunden.de 0 4164861 2012-01-15 07:54:41
6382276 defensesoap.com 0 187689 2012-01-15 07:54:43
6382277 e-cazari.ro 0 8077367 2012-01-15 07:54:43
6382278 hpeng.com.cn 0 No Rank 2012-01-15 07:54:47
6382279 wncland.com 0 No Rank 2012-01-15 07:54:48
6382280 deleongames.com 0 No Rank 2012-01-15 07:54:50
6382281 dehumidifier.in.th 0 13413721 2012-01-15 07:54:50
6382282 pracujw.org 0 No Rank 2012-01-15 07:54:52
6382283 super6.rehd.co.uk 0 13317599 2012-01-15 07:54:53
6382284 grafobal.sk 0 19351295 2012-01-15 07:54:53
6382285 delorean-midwest.org 0 No Rank 2012-01-15 07:54:54
6382286 vidsnow.com 0 No Rank 2012-01-15 07:54:56
6382287 deneyer-alain.be 0 No Rank 2012-01-15 07:55:00
6382288 takethefloor.co.uk 0 No Rank 2012-01-15 07:55:01
6382289 denizorme.com 0 No Rank 2012-01-15 07:55:02
6382290 ecoenvi.org 0 No Rank 2012-01-15 07:55:02
6382291 tvu14.com 0 No Rank 2012-01-15 07:55:06
6382292 thaycom.com 0 No Rank 2012-01-15 07:55:08
6382293 denverradio.com 0 20072288 2012-01-15 07:55:12
6382294 rentsnw.com 0 No Rank 2012-01-15 07:55:13
6382295 designersoft.net 0 No Rank 2012-01-15 07:55:15
6382296 joekemp.net 0 8623533 2012-01-15 07:55:16
6382297 designlogo.co.nz 0 25445939 2012-01-15 07:55:16
6382298 wjjz818.com 0 No Rank 2012-01-15 07:55:18
6382299 nakovana.hr 0 20811938 2012-01-15 07:55:20
6382300 detonline.org 0 17418174 2012-01-15 07:55:22
6382301 detaned.nl 0 3403638 2012-01-15 07:55:23
6382302 ipsirli.com 0 No Rank 2012-01-15 07:55:26
6382303 scom.com.br 0 No Rank 2012-01-15 07:55:30
6382304 cpasadp.com 0 No Rank 2012-01-15 07:55:32
6382305 jgrayco.com 0 No Rank 2012-01-15 07:55:36
6382306 dhanojekunbisamaj.com 0 5316179 2012-01-15 07:55:36
6382307 dhtechsource.com 0 No Rank 2012-01-15 07:55:38
6382308 mirihhh.com 0 No Rank 2012-01-15 07:55:38
6382309 iddplus.com 0 No Rank 2012-01-15 07:55:40
6382310 diabeticsupplyco.com 0 15755490 2012-01-15 07:55:43
6382311 syo-a.co.jp 0 No Rank 2012-01-15 07:55:43
6382312 diamondcenterstore.com 0 No Rank 2012-01-15 07:55:46
6382313 crash.co.jp 0 No Rank 2012-01-15 07:55:49
6382314 dicentia.se 0 4762902 2012-01-15 07:55:49
6382315 arjunox.com 0 No Rank 2012-01-15 07:55:50
6382316 skripsi.web.id 0 11971098 2012-01-15 07:55:52
6382317 wapfshr.com 0 No Rank 2012-01-15 07:55:53
6382318 hcrafts.com 0 4285044 2012-01-15 07:55:54
6382319 digitalideaz.net 0 No Rank 2012-01-15 07:55:57
6382320 dilliduduk.com 0 3739635 2012-01-15 07:55:58
6382321 thefootwhisperer.co.uk 0 No Rank 2012-01-15 07:56:02
6382322 tip7mcn.com 0 3232318 2012-01-15 07:56:02
6382323 lift-ing.hr 0 No Rank 2012-01-15 07:56:03
6382324 wen-usa.com 0 8145682 2012-01-15 07:56:04
6382325 dinosaurcostumesale.com 0 No Rank 2012-01-15 07:56:05
6382326 codesec.org 0 12345996 2012-01-15 07:56:07
6382327 disastertrainingspecialist.com 0 3941800 2012-01-15 07:56:13
6382328 gela-vrn.ru 0 8509789 2012-01-15 07:56:15
6382329 aco-s.co.jp 0 No Rank 2012-01-15 07:56:15
6382330 dirtdonthurt.net 0 6293640 2012-01-15 07:56:16
6382331 nsneves.com 0 No Rank 2012-01-15 07:56:17
6382332 iumrshq.org 0 10945672 2012-01-15 07:56:20
6382333 discoveringukraine.com 0 3040609 2012-01-15 07:56:21
6382334 toys4fun.ro 0 13576377 2012-01-15 07:56:26
6382335 distinctivefoods.com 0 No Rank 2012-01-15 07:56:26
6382336 plastec.biz 0 No Rank 2012-01-15 07:56:30
6382337 fwkfesp.com 0 No Rank 2012-01-15 07:56:33
6382338 ditt-treningssenter.no 0 No Rank 2012-01-15 07:56:36
6382339 divineclothingnyc.com 0 No Rank 2012-01-15 07:56:37
6382340 luzinet.com 0 14993991 2012-01-15 07:56:42
6382341 dj-stonzy.be 0 No Rank 2012-01-15 07:56:43
6382342 theoldbill.co.uk 0 21725487 2012-01-15 07:56:43
6382343 raksmar.com 0 25824112 2012-01-15 07:56:43
6382344 aacorg.co.za 0 8646233 2012-01-15 07:56:43
6382345 alfadoz.com 0 27578281 2012-01-15 07:56:47
6382346 dohr.lionel.free.fr 0 7628053 2012-01-15 07:56:49
6382347 dogcollarspro.org 0 6634939 2012-01-15 07:56:50
6382348 autoprim.ro 0 No Rank 2012-01-15 07:56:54
6382349 dolgadohost.com 0 18141858 2012-01-15 07:56:56
6382350 e-yudane.jp 0 No Rank 2012-01-15 07:56:57
6382351 websure.net 0 No Rank 2012-01-15 07:57:03
6382352 ucm-magnesia.com 0 No Rank 2012-01-15 07:57:05
6382353 linuxwin.de 0 24223923 2012-01-15 07:57:06
6382354 hsyatai.com 0 No Rank 2012-01-15 07:57:12
6382355 sonor.co.uk 0 11640348 2012-01-15 07:57:12
6382356 naka1.co.jp 0 No Rank 2012-01-15 07:57:14
6382357 tic85.co.jp 0 No Rank 2012-01-15 07:57:16
6382358 adlerhop.de 0 No Rank 2012-01-15 07:57:18
6382359 dr-guengoer.de 0 No Rank 2012-01-15 07:57:19
6382360 ofas.org.uk 0 27005290 2012-01-15 07:57:21
6382361 draemgate.com 0 No Rank 2012-01-15 07:57:23
6382362 unclaimedassets.org.uk 0 No Rank 2012-01-15 07:57:25
6382363 domideja.lt 0 No Rank 2012-01-15 07:57:26
6382364 drbrantleyortho.com 0 No Rank 2012-01-15 07:57:30
6382365 ucm-group.com 0 No Rank 2012-01-15 07:57:32
6382366 consemi.com 0 No Rank 2012-01-15 07:57:32
6382367 zadimed.com 0 16496371 2012-01-15 07:57:34
6382368 ersumer.org 0 27439484 2012-01-15 07:57:35
6382369 dreamworksindia.org 0 12328024 2012-01-15 07:57:37
6382370 showezy.com 0 No Rank 2012-01-15 07:57:38
6382371 drilandfeeders.com 0 No Rank 2012-01-15 07:57:38
6382372 wallpaperstripper.co.uk 0 24135953 2012-01-15 07:57:42
6382373 drinkrushenergy.com 0 No Rank 2012-01-15 07:57:44
6382374 drjamestalkington.com 0 13562394 2012-01-15 07:57:46
6382375 job7.trucosiphone4.com 0 No Rank 2012-01-15 07:57:47
6382376 drmelodye.com 0 No Rank 2012-01-15 07:57:49
6382377 drreardon.com 0 No Rank 2012-01-15 07:57:51
6382378 paincult.ru 0 No Rank 2012-01-15 07:57:51
6382379 2xiaozi.com 0 No Rank 2012-01-15 07:57:51
6382380 kim-ode.com 0 21896974 2012-01-15 07:57:52
6382381 drrug.com 0 No Rank 2012-01-15 07:57:54
6382382 dsclabel.com 0 12985876 2012-01-15 07:57:58
6382383 bachtin.com 0 7009648 2012-01-15 07:57:59
6382384 costis.name 0 No Rank 2012-01-15 07:58:01
6382385 wujs.org.il 0 4374615 2012-01-15 07:58:01
6382386 dt-solutions.com 0 No Rank 2012-01-15 07:58:06
6382387 webenhancements.co.uk 0 2505108 2012-01-15 07:58:08
6382388 dutchmillcabinets.com 0 No Rank 2012-01-15 07:58:10
6382389 dvdrendeles.hu 0 3845154 2012-01-15 07:58:15
6382390 e-compost.ee 0 No Rank 2012-01-15 07:58:18
6382391 e-heyat.com 0 299416 2012-01-15 07:58:21
6382392 east4west.com 0 No Rank 2012-01-15 07:58:26
6382393 adrienbaudet.com 0 22144482 2012-01-15 07:58:32
6382394 ebrulialyans.net 0 No Rank 2012-01-15 07:58:32
6382395 ace-exchange.com 0 No Rank 2012-01-15 07:58:34
6382396 eclipsesalon.com 0 12398163 2012-01-15 07:58:37
6382397 ecoproducts1corp.com 0 No Rank 2012-01-15 07:58:42
6382398 ecoxpac.eu 0 No Rank 2012-01-15 07:58:46
6382399 edbrecovery.com 0 4289811 2012-01-15 07:58:54
6382400 edewingagency.com 0 No Rank 2012-01-15 07:59:03
6382401 edlewelt.de 0 1724484 2012-01-15 07:59:07
6382402 2amlife.com 0 2910916 2012-01-15 07:59:21
6382403 educationaction.co.nz 0 No Rank 2012-01-15 07:59:23
6382404 androidforsale.org 0 No Rank 2012-01-15 07:59:23
6382405 eframe.dk 0 2518121 2012-01-15 07:59:29
6382406 eggplantlab.org 0 No Rank 2012-01-15 07:59:31
6382407 eightoclockranch.com 0 No Rank 2012-01-15 07:59:33
6382408 elaiolado.com.gr 0 No Rank 2012-01-15 07:59:46
6382409 whrxl.com 0 No Rank 2012-01-15 07:59:51
6382410 saierbio.cn 0 No Rank 2012-01-15 07:59:56
6382411 marna.co.jp 0 2189386 2012-01-15 07:59:56
6382412 elegantnightslingerie.com 0 5208239 2012-01-15 07:59:57
6382413 iws-rist.at 0 No Rank 2012-01-15 07:59:58
6382414 ibexcom.com 0 No Rank 2012-01-15 08:00:01
6382415 elgani.co.nz 0 No Rank 2012-01-15 08:00:02
6382416 tomoyou.com 0 7919467 2012-01-15 08:00:07
6382417 ekspresvize.com 0 No Rank 2012-01-15 08:00:10
6382418 tuhabbo.com 0 3742099 2012-01-15 08:00:13
6382419 senestudio.net 0 21077460 2012-01-15 08:00:13
6382420 elijahstarfashion.com 0 No Rank 2012-01-15 08:00:14
6382421 phecard.com 0 23890415 2012-01-15 08:00:15
6382422 elitetrade.com 0 1430930 2012-01-15 08:00:17
6382423 elitevinyl.net 0 19147120 2012-01-15 08:00:23
6382424 usw5890.com 0 No Rank 2012-01-15 08:00:24
6382425 walshand.co.uk 0 No Rank 2012-01-15 08:00:26
6382426 elizabethtoncustomcabinets.com 0 No Rank 2012-01-15 08:00:29
6382427 brosh.co.uk 0 3618486 2012-01-15 08:00:31
6382428 emarketerforhire.com 0 6006940 2012-01-15 08:00:33
6382429 seotips.org 0 1918262 2012-01-15 08:00:34
6382430 endlessdeep.net 0 No Rank 2012-01-15 08:00:34
6382431 cbhsffa.com 0 No Rank 2012-01-15 08:00:37
6382432 endlessway.com 0 No Rank 2012-01-15 08:00:38
6382433 lees7.co.uk 0 No Rank 2012-01-15 08:00:40
6382434 engineeringcadsoftware.com 0 No Rank 2012-01-15 08:00:42
6382435 by.123go.cn 0 285654 2012-01-15 08:00:44
6382436 cies.org.cn 0 6393787 2012-01-15 08:00:45
6382437 colco.co.uk 0 8251631 2012-01-15 08:00:46
6382438 epicpolymer.com 0 10273029 2012-01-15 08:00:47
6382439 arrowheadpendants.com 0 7060570 2012-01-15 08:00:49
6382440 texfinn.org 0 No Rank 2012-01-15 08:00:49
6382441 episcopalbuford.org 0 No Rank 2012-01-15 08:00:52
6382442 co-good.com 0 No Rank 2012-01-15 08:00:55
6382443 msasltd.com 0 No Rank 2012-01-15 08:00:59
6382444 edenpark.it 0 No Rank 2012-01-15 08:01:01
6382445 apexinternetstrategies.com 0 15719660 2012-01-15 08:01:01
6382446 eriewalleye.com 0 No Rank 2012-01-15 08:01:01
6382447 ervin-sport.com 0 5164713 2012-01-15 08:01:03
6382448 330ck.co.jp 0 No Rank 2012-01-15 08:01:03
6382449 readmytweets.com 0 7733523 2012-01-15 08:01:07
6382450 panorama.by 0 2122795 2012-01-15 08:01:13
6382451 ralotpro.by 0 No Rank 2012-01-15 08:01:14
6382452 escalantegrandstaircase.com 0 No Rank 2012-01-15 08:01:16
6382453 especialuk.com 0 No Rank 2012-01-15 08:01:17
6382454 mcklein.com 0 No Rank 2012-01-15 08:01:22
6382455 estonia.ecotourism.ee 0 3253637 2012-01-15 08:01:24
6382456 estenrecords.com 0 21405976 2012-01-15 08:01:24
6382457 ekasino.net 0 No Rank 2012-01-15 08:01:28
6382458 uklakes.net 0 8544455 2012-01-15 08:01:29
6382459 acebatandwildlife.com 0 12687066 2012-01-15 08:01:30
6382460 reyouth.com 0 No Rank 2012-01-15 08:01:32
6382461 willacu.com 0 No Rank 2012-01-15 08:01:34
6382462 auricrefining.com 0 No Rank 2012-01-15 08:01:40
6382463 evenement-online.com 0 No Rank 2012-01-15 08:01:40
6382464 kdfycia.com 0 No Rank 2012-01-15 08:01:48
6382465 fce.ufm.edu 0 99176 2012-01-15 08:01:50
6382466 artbyjudith.ca 0 No Rank 2012-01-15 08:01:51
6382467 aikoh.co.jp 0 No Rank 2012-01-15 08:01:53
6382468 unlight.org 0 21001724 2012-01-15 08:01:56
6382469 mp3s.org.uk 0 No Rank 2012-01-15 08:02:04
6382470 awardwinningfoundation.com 0 No Rank 2012-01-15 08:02:05
6382471 everythinggeckos.com 0 No Rank 2012-01-15 08:02:06
6382472 lcrk.org.au 0 No Rank 2012-01-15 08:02:08
6382473 tempo-co.jp 0 No Rank 2012-01-15 08:02:09
6382474 evolveimagedesign.com 0 No Rank 2012-01-15 08:02:13
6382475 digikont.de 0 No Rank 2012-01-15 08:02:18
6382476 21stcentury.trucosiphone4.com 0 No Rank 2012-01-15 08:02:19
6382477 k1ngston.de 0 9371718 2012-01-15 08:02:20
6382478 expressuncontesteddivorce.com 0 10874469 2012-01-15 08:02:21
6382479 webworldwide.co.th 0 1863310 2012-01-15 08:02:22
6382480 todokyo.com 0 1526449 2012-01-15 08:02:22
6382481 extravadansestudio.com 0 No Rank 2012-01-15 08:02:24
6382482 swccgdb.com 0 No Rank 2012-01-15 08:02:26
6382483 yotsuba.com 0 No Rank 2012-01-15 08:02:30
6382484 zone140.com 0 No Rank 2012-01-15 08:02:30
6382485 eyestothelight.com 0 No Rank 2012-01-15 08:02:36
6382486 topdeck.biz 0 No Rank 2012-01-15 08:02:39
6382487 faceliift.com 0 18798958 2012-01-15 08:02:41
6382488 bar641n.com 0 No Rank 2012-01-15 08:02:41
6382489 phoseon.com 0 2446222 2012-01-15 08:02:45
6382490 autoliga.by 0 4337105 2012-01-15 08:02:45
6382491 facialsmachine.com 0 No Rank 2012-01-15 08:02:45
6382492 acnetreatmentforscars.com 0 4972083 2012-01-15 08:02:47
6382493 mar-kel.com 0 No Rank 2012-01-15 08:02:48
6382494 dhop.us.com 0 22282354 2012-01-15 08:02:54
6382495 wolfsportscars.co.uk 0 No Rank 2012-01-15 08:02:56
6382496 westgran.by 0 10370115 2012-01-15 08:02:59
6382497 famemediagroup.net 0 5289679 2012-01-15 08:02:59
6382498 snogear.com 0 4667688 2012-01-15 08:03:01
6382499 familypayday.com 0 No Rank 2012-01-15 08:03:03
6382500 woofwalkandplay.com 0 No Rank 2012-01-15 08:03:07
6382501 yakusan.com 0 14192551 2012-01-15 08:03:08
6382502 imiohio.com 0 No Rank 2012-01-15 08:03:13
6382503 winaniphone.co.uk 0 No Rank 2012-01-15 08:03:13
6382504 farmecireland.com 0 No Rank 2012-01-15 08:03:14
6382505 dekoline.by 0 9068402 2012-01-15 08:03:16
6382506 photoak.net 0 No Rank 2012-01-15 08:03:16
6382507 ayso11r.org 0 No Rank 2012-01-15 08:03:18
6382508 zimbaligolfrentals.com 0 15735689 2012-01-15 08:03:22
6382509 farwestfoxtrotters.com 0 No Rank 2012-01-15 08:03:22
6382510 mehzavod.by 0 15738460 2012-01-15 08:03:23
6382511 344clue.com 0 No Rank 2012-01-15 08:03:24
6382512 fashionfloor.be 0 15330825 2012-01-15 08:03:27
6382513 silicate.by 0 11235023 2012-01-15 08:03:29
6382514 bigbeef.com 0 23001319 2012-01-15 08:03:38
6382515 fatayat.or.id 0 14759706 2012-01-15 08:03:40
6382516 news45.info 0 No Rank 2012-01-15 08:03:46
6382517 fatlossfaster.com 0 20963075 2012-01-15 08:03:47
6382518 arche.co.th 0 18294319 2012-01-15 08:03:47
6382519 ngarara.com 0 No Rank 2012-01-15 08:03:48
6382520 la07mju.com 0 No Rank 2012-01-15 08:03:52
6382521 ohs2014.com 0 No Rank 2012-01-15 08:03:53
6382522 feact.org 0 No Rank 2012-01-15 08:03:55
6382523 k5tutor.com 0 No Rank 2012-01-15 08:03:58
6382524 valnera.com 0 No Rank 2012-01-15 08:04:03
6382525 feelkristinestad.fi 0 No Rank 2012-01-15 08:04:04
6382526 desvern.cat 0 No Rank 2012-01-15 08:04:06
6382527 ehutara.com 0 18081509 2012-01-15 08:04:11
6382528 comorecuperaraunaexpareja.blogspot.com 0 No Rank 2012-01-15 08:04:12
6382529 vividvt.com 0 No Rank 2012-01-15 08:04:15
6382530 nacetem.org 0 27013584 2012-01-15 08:04:17
6382531 mrsteaks.hubpages.com 0 297 2012-01-15 08:04:18
6382532 festival.mtstmichel.free.fr 0 No Rank 2012-01-15 08:04:19
6382533 besttoolsstore.com 0 No Rank 2012-01-15 08:04:20
6382534 ever-us.com 0 1078407 2012-01-15 08:04:21
6382535 rixinad.com 0 No Rank 2012-01-15 08:04:22
6382536 dinniss.com 0 No Rank 2012-01-15 08:04:23
6382537 becomingconscious.com.au 0 13569765 2012-01-15 08:04:24
6382538 sinheng.com 0 23033143 2012-01-15 08:04:27
6382539 sionicx.com 0 No Rank 2012-01-15 08:04:29
6382540 feuerwehr-badenhausen.de 0 No Rank 2012-01-15 08:04:29
6382541 inths.co.uk 0 No Rank 2012-01-15 08:04:36
6382542 ahha-entertainment.co.uk 0 No Rank 2012-01-15 08:04:36
6382543 anjanco.com 0 No Rank 2012-01-15 08:04:37
6382544 fibercables.be 0 19843391 2012-01-15 08:04:38
6382545 beststar.my 0 17838676 2012-01-15 08:04:43
6382546 nadineunddominikheiraten.de 0 No Rank 2012-01-15 08:04:46
6382547 alfordcoachhouse.co.uk 0 No Rank 2012-01-15 08:04:47
6382548 zhentai.com 0 No Rank 2012-01-15 08:04:48
6382549 ongavet.com 0 No Rank 2012-01-15 08:04:49
6382550 fidus.lt 0 18084240 2012-01-15 08:04:51
6382551 shoptsg.com 0 No Rank 2012-01-15 08:04:52
6382552 filminstreaminggratis.com 0 5022788 2012-01-15 08:05:01
6382553 ukcdp.co.uk 0 No Rank 2012-01-15 08:05:02
6382554 ecocomu.net 0 7153232 2012-01-15 08:05:02
6382555 cricutexpressionreviews.org 0 No Rank 2012-01-15 08:05:04
6382556 ezart2k.com 0 No Rank 2012-01-15 08:05:06
6382557 findutahhomesnow.com 0 1991551 2012-01-15 08:05:07
6382558 portua.info 0 10707389 2012-01-15 08:05:13
6382559 asiarep.com 0 19144204 2012-01-15 08:05:14
6382560 ddmagazine.com 0 468660 2012-01-15 08:05:16
6382561 finearttours.com 0 3209671 2012-01-15 08:05:17
6382562 acupuncture-aquitaine.org 0 No Rank 2012-01-15 08:05:19
6382563 ninglian.cn 0 No Rank 2012-01-15 08:05:19
6382564 uncomic.com 0 No Rank 2012-01-15 08:05:19
6382565 fingera.cz 0 11645015 2012-01-15 08:05:24
6382566 solarium.by 0 7044284 2012-01-15 08:05:25
6382567 firstamericancenterwausau.com 0 No Rank 2012-01-15 08:05:29
6382568 sy750kv.com 0 5839809 2012-01-15 08:05:29
6382569 foxclean.es 0 21232644 2012-01-15 08:05:30
6382570 aimali.com 0 10600359 2012-01-15 08:05:31
6382571 meteomay.es 0 24917348 2012-01-15 08:05:32
6382572 firstaquariushomes.com 0 No Rank 2012-01-15 08:05:34
6382573 like111.com 0 2966956 2012-01-15 08:05:34
6382574 kbevent.com 0 22020908 2012-01-15 08:05:36
6382575 trungtammaychieu.com.vn 0 No Rank 2012-01-15 08:05:36
6382576 lsct.com.my 0 27298202 2012-01-15 08:05:38
6382577 esenpro.com 0 No Rank 2012-01-15 08:05:39
6382578 fishpipe.co.nz 0 21702064 2012-01-15 08:05:41
6382579 hamcomm.com 0 15926058 2012-01-15 08:05:42
6382580 alhoda.co.uk 0 26582760 2012-01-15 08:05:45
6382581 izzmarre.nl 0 No Rank 2012-01-15 08:05:45
6382582 inovise.com 0 18135357 2012-01-15 08:05:49
6382583 fix-konzept.com 0 3935533 2012-01-15 08:05:51
6382584 fjordlab.no 0 No Rank 2012-01-15 08:05:55
6382585 qualfon.com 0 3464884 2012-01-15 08:05:57
6382586 dunadan.net 0 No Rank 2012-01-15 08:05:58
6382587 dljhcpa.com 0 No Rank 2012-01-15 08:06:00
6382588 flatearthphoto.com 0 25199101 2012-01-15 08:06:01
6382589 flexibledownspout.ca 0 No Rank 2012-01-15 08:06:09
6382590 askbury.com 0 No Rank 2012-01-15 08:06:15
6382591 flexidee.com 0 18497069 2012-01-15 08:06:15
6382592 zaffyre.com 0 No Rank 2012-01-15 08:06:17
6382593 read-us.com 0 No Rank 2012-01-15 08:06:19
6382594 floortradermidlothian.com 0 No Rank 2012-01-15 08:06:21
6382595 studiop5.de 0 No Rank 2012-01-15 08:06:23
6382596 mcdpics.com 0 No Rank 2012-01-15 08:06:25
6382597 floortradervaldosta.com 0 No Rank 2012-01-15 08:06:27
6382598 cugbedu.com 0 6963775 2012-01-15 08:06:29
6382599 upsohio.com 0 No Rank 2012-01-15 08:06:31
6382600 florabankandtrust.com 0 2795245 2012-01-15 08:06:31
6382601 matjash.com 0 No Rank 2012-01-15 08:06:32
6382602 cscarts.org 0 5903612 2012-01-15 08:06:35
6382603 flowersatabbeys.com 0 8905639 2012-01-15 08:06:36
6382604 monissa.com 0 8867800 2012-01-15 08:06:39
6382605 yomitan.net 0 No Rank 2012-01-15 08:06:44
6382606 flowersauckland.co.nz 0 5131471 2012-01-15 08:06:44
6382607 kimstroy.by 0 No Rank 2012-01-15 08:06:46
6382608 pakar-digital-marketing.net 0 No Rank 2012-01-15 08:06:47
6382609 duolina.com 0 No Rank 2012-01-15 08:06:48
6382610 flyingb-ranch.com 0 No Rank 2012-01-15 08:06:49
6382611 troop48.org 0 No Rank 2012-01-15 08:06:51
6382612 jknorth.com 0 No Rank 2012-01-15 08:06:55
6382613 focus-sniper.com 0 No Rank 2012-01-15 08:06:56
6382614 sjzlyxx.com 0 No Rank 2012-01-15 08:06:56
6382615 fondationtvw.lu 0 No Rank 2012-01-15 08:06:58
6382616 moriger.com 0 8549389 2012-01-15 08:07:01
6382617 newsafe.net 0 No Rank 2012-01-15 08:07:02
6382618 hsherul.com 0 9695138 2012-01-15 08:07:05
6382619 pyrford.com 0 No Rank 2012-01-15 08:07:09
6382620 foodnetworkonline.com 0 No Rank 2012-01-15 08:07:09
6382621 footballsell.com 0 5166513 2012-01-15 08:07:12
6382622 moi-web.com 0 No Rank 2012-01-15 08:07:13
6382623 malorita.by 0 5324538 2012-01-15 08:07:21
6382624 melihah.com 0 16731092 2012-01-15 08:07:21
6382625 forensicsociety.sk 0 No Rank 2012-01-15 08:07:21
6382626 forma3mil.free.fr 0 No Rank 2012-01-15 08:07:22
6382627 gnosistv.es 0 10669894 2012-01-15 08:07:25
6382628 thinksl.com 0 9302495 2012-01-15 08:07:26
6382629 store1.trucosiphone4.com 0 No Rank 2012-01-15 08:07:26
6382630 fortech.krakow.pl 0 17540800 2012-01-15 08:07:27
6382631 fortune-tel.com 0 No Rank 2012-01-15 08:07:34
6382632 yodocup.com 0 No Rank 2012-01-15 08:07:34
6382633 sandraj.com 0 13033315 2012-01-15 08:07:36
6382634 fortunes.de.mer.free.fr 0 2092932 2012-01-15 08:07:37
6382635 smartsex.ch 0 No Rank 2012-01-15 08:07:38
6382636 foryoucad.com 0 No Rank 2012-01-15 08:07:40
6382637 imec.edu.my 0 1717609 2012-01-15 08:07:46
6382638 funfit24.de 0 14527316 2012-01-15 08:07:47
6382639 fotoandmore.de 0 939972 2012-01-15 08:07:51
6382640 govsnap.com 0 No Rank 2012-01-15 08:07:55
6382641 fotoantologia.it 0 1011183 2012-01-15 08:07:55
6382642 unisons.biz 0 No Rank 2012-01-15 08:07:56
6382643 franktax.ca 0 17144318 2012-01-15 08:07:57
6382644 cityngv.com 0 21324671 2012-01-15 08:07:58
6382645 fotostudio-sedlmayer.de 0 No Rank 2012-01-15 08:07:59
6382646 foundationforglobalscholars.org 0 10326904 2012-01-15 08:08:02
6382647 tuosist.net 0 No Rank 2012-01-15 08:08:04
6382648 stlusbc.org 0 No Rank 2012-01-15 08:08:07
6382649 france.lettres.free.fr 0 2027324 2012-01-15 08:08:09
6382650 mightylib.xupuwivxlfo.blogspot.com 0 No Rank 2012-01-15 08:08:09
6382651 vipsites.by 0 4618887 2012-01-15 08:08:13
6382652 francesvictor.net 0 No Rank 2012-01-15 08:08:13
6382653 rvee.org.uk 0 No Rank 2012-01-15 08:08:14
6382654 cavmen.home.trucosiphone4.com 0 No Rank 2012-01-15 08:08:15
6382655 octolab.com 0 No Rank 2012-01-15 08:08:15
6382656 franchiseshowradio.com 0 18688878 2012-01-15 08:08:16
6382657 abantecleaning.co.uk 0 11386833 2012-01-15 08:08:20
6382658 andrewweller.co.uk 0 No Rank 2012-01-15 08:08:21
6382659 horovod.net 0 10489253 2012-01-15 08:08:21
6382660 md87vip.com 0 No Rank 2012-01-15 08:08:22
6382661 francophonie.gc.ca 0 586 2012-01-15 08:08:22
6382662 franklinartsfestival.com 0 No Rank 2012-01-15 08:08:28
6382663 franciscusfrando.be 0 No Rank 2012-01-15 08:08:29
6382664 kgroupp.com 0 No Rank 2012-01-15 08:08:29
6382665 hc-mugi.com 0 7500797 2012-01-15 08:08:31
6382666 freegardening.org 0 No Rank 2012-01-15 08:08:32
6382667 freespirit2charters.com 0 No Rank 2012-01-15 08:08:34
6382668 anglianplanthire.co.uk 0 22125154 2012-01-15 08:08:38
6382669 ambican.com 0 2666699 2012-01-15 08:08:40
6382670 frenchamericancenter.com 0 2961514 2012-01-15 08:08:40
6382671 fresh-wave.com 0 1330200 2012-01-15 08:08:42
6382672 zonnair.com 0 15948263 2012-01-15 08:08:43
6382673 annasuly.co.uk 0 4910154 2012-01-15 08:08:45
6382674 ozsoft.info 0 No Rank 2012-01-15 08:08:47
6382675 keijina.net 0 No Rank 2012-01-15 08:08:49
6382676 fresnonation.com 0 No Rank 2012-01-15 08:08:49
6382677 fsbcg.com 0 No Rank 2012-01-15 08:08:51
6382678 glpvfms.com 0 No Rank 2012-01-15 08:08:52
6382679 abtests.org 0 13232890 2012-01-15 08:08:54
6382680 fsvbc.org 0 19273058 2012-01-15 08:08:55
6382681 ftmyerscc.com 0 13929603 2012-01-15 08:08:56
6382682 hsupdog.com 0 20128049 2012-01-15 08:08:59
6382683 gahanna.com 0 5750810 2012-01-15 08:09:01
6382684 fuhyoofm.com 0 4843562 2012-01-15 08:09:02
6382685 funngun.com 0 No Rank 2012-01-15 08:09:03
6382686 lifeact.com 0 3821991 2012-01-15 08:09:07
6382687 wima-nj.com 0 No Rank 2012-01-15 08:09:09
6382688 wwdsoft.com 0 14442649 2012-01-15 08:09:12
6382689 zopim.jayasupply.com 0 7378290 2012-01-15 08:09:13
6382690 fusionmediastrategies.com 0 14336333 2012-01-15 08:09:13
6382691 moroccanhomefurnishings.com 0 No Rank 2012-01-15 08:09:14
6382692 schermer.de 0 No Rank 2012-01-15 08:09:15
6382693 futuraoslo.no 0 2475430 2012-01-15 08:09:16
6382694 e-siete.com 0 No Rank 2012-01-15 08:09:18
6382695 fvpierlot.com 0 No Rank 2012-01-15 08:09:21
6382696 ltcreno.com 0 No Rank 2012-01-15 08:09:21
6382697 00381cd.netsolhost.com 0 9437 2012-01-15 08:09:23
6382698 amarylis.gr 0 No Rank 2012-01-15 08:09:24
6382699 gakuseinet.com 0 4554052 2012-01-15 08:09:24
6382700 galwaybay10.com 0 No Rank 2012-01-15 08:09:29
6382701 lywy168.com 0 No Rank 2012-01-15 08:09:31
6382702 garbagegame.com 0 No Rank 2012-01-15 08:09:32
6382703 aphroditemoments.co.uk 0 No Rank 2012-01-15 08:09:35
6382704 acehomeswestmi.com 0 No Rank 2012-01-15 08:09:35
6382705 med.tcl.com 0 65015 2012-01-15 08:09:36
6382706 kksalon.com 0 3257499 2012-01-15 08:09:36
6382707 garyparkins.com 0 No Rank 2012-01-15 08:09:37
6382708 garlandofemeralds.com 0 No Rank 2012-01-15 08:09:37
6382709 gasministry.com 0 No Rank 2012-01-15 08:09:42
6382710 kitescs.com 0 25521241 2012-01-15 08:09:43
6382711 cvtsurg.com 0 No Rank 2012-01-15 08:09:45
6382712 gassi.free.fr 0 No Rank 2012-01-15 08:09:45
6382713 timoerraya.blogspot.com 0 26186968 2012-01-15 08:09:48
6382714 santlek.com 0 No Rank 2012-01-15 08:09:48
6382715 apmarco.com 0 No Rank 2012-01-15 08:09:48
6382716 arlingtonhorseboxes.co.uk 0 No Rank 2012-01-15 08:09:49
6382717 gazaltiproje.com 0 No Rank 2012-01-15 08:09:51
6382718 msscweb.org 0 No Rank 2012-01-15 08:09:54
6382719 atone.in.th 0 No Rank 2012-01-15 08:09:57
6382720 mm.arbu.biz 0 12493328 2012-01-15 08:09:58
6382721 geoffthompson.com 0 830162 2012-01-15 08:09:58
6382722 armadillo-products.co.uk 0 No Rank 2012-01-15 08:10:00
6382723 bassira.com 0 No Rank 2012-01-15 08:10:00
6382724 geohi.com 0 No Rank 2012-01-15 08:10:01
6382725 whowhere.niche-product.info 0 No Rank 2012-01-15 08:10:03
6382726 geome.be 0 16805650 2012-01-15 08:10:04
6382727 bigredf.com 0 4019230 2012-01-15 08:10:06
6382728 sallean.com 0 No Rank 2012-01-15 08:10:09
6382729 geraldforster.com 0 21002587 2012-01-15 08:10:14
6382730 arandor.com 0 5565834 2012-01-15 08:10:20
6382731 get-your-website.net 0 No Rank 2012-01-15 08:10:21
6382732 gerasimov.org 0 2774111 2012-01-15 08:10:22
6382733 two-fish.ca 0 26786571 2012-01-15 08:10:23
6382734 giftahealth.com 0 942507 2012-01-15 08:10:30
6382735 amity2u.com 0 No Rank 2012-01-15 08:10:30
6382736 sgfilms.com 0 4141458 2012-01-15 08:10:32
6382737 atqs.com.my 0 25642894 2012-01-15 08:10:36
6382738 gis.edu.vn 0 No Rank 2012-01-15 08:10:38
6382739 giresunlular.com 0 2564690 2012-01-15 08:10:39
6382740 atvs.com.my 0 21324668 2012-01-15 08:10:43
6382741 gjm3.net 0 No Rank 2012-01-15 08:10:44
6382742 berhad.info 0 No Rank 2012-01-15 08:10:44
6382743 glacierdrs.com 0 No Rank 2012-01-15 08:10:44
6382744 glanbrookskate.com 0 No Rank 2012-01-15 08:10:48
6382745 estetica.gr 0 19205007 2012-01-15 08:10:49
6382746 glassclay.com 0 26430217 2012-01-15 08:10:51
6382747 atautos.co.uk 0 No Rank 2012-01-15 08:10:51
6382748 vten.com.my 0 No Rank 2012-01-15 08:10:51
6382749 glassfootsteps.com 0 No Rank 2012-01-15 08:10:53
6382750 jcscuba.net 0 No Rank 2012-01-15 08:10:54
6382751 gzox.com.my 0 5735705 2012-01-15 08:10:59
6382752 bookmarkgoblin.com 0 No Rank 2012-01-15 08:10:59
6382753 glistendayspa.com 0 24564076 2012-01-15 08:10:59
6382754 wetfurn.com 0 No Rank 2012-01-15 08:11:00
6382755 globalartinterior.com 0 13622490 2012-01-15 08:11:05
6382756 astralisgroup.com 0 8898978 2012-01-15 08:11:06
6382757 olbrich.com 0 15368787 2012-01-15 08:11:06
6382758 globaltorrents.org 0 No Rank 2012-01-15 08:11:06
6382759 tomyblu.com 0 22581112 2012-01-15 08:11:08
6382760 final66.net 0 3846020 2012-01-15 08:11:10
6382761 implere.com 0 2671224 2012-01-15 08:11:15
6382762 globetrotter.org 0 5878938 2012-01-15 08:11:16
6382763 me-idea.com 0 No Rank 2012-01-15 08:11:19
6382764 lcdtv65.com 0 No Rank 2012-01-15 08:11:20
6382765 goeschool.com 0 3819358 2012-01-15 08:11:20
6382766 kanruji.com 0 No Rank 2012-01-15 08:11:25
6382767 goldcatcharms.com 0 12263900 2012-01-15 08:11:26
6382768 hxt-led.com 0 No Rank 2012-01-15 08:11:29
6382769 mct-kit.com 0 No Rank 2012-01-15 08:11:31
6382770 gold-club.biz 0 No Rank 2012-01-15 08:11:34
6382771 skphome.com 0 No Rank 2012-01-15 08:11:35
6382772 chanirr.com 0 No Rank 2012-01-15 08:11:37
6382773 bencole.net 0 No Rank 2012-01-15 08:11:39
6382774 golflescedres.com 0 15245479 2012-01-15 08:11:40
6382775 golfhealthaid.com 0 10793131 2012-01-15 08:11:41
6382776 the-mbi.com 0 10279143 2012-01-15 08:11:42
6382777 sho-rai.com 0 No Rank 2012-01-15 08:11:43
6382778 google-slapper.org 0 23881224 2012-01-15 08:11:45
6382779 psmanor.com 0 No Rank 2012-01-15 08:11:46
6382780 goodkidsinc.org 0 No Rank 2012-01-15 08:11:47
6382781 go2.trucosiphone4.com 0 No Rank 2012-01-15 08:11:53
6382782 austinscradles.co.uk 0 No Rank 2012-01-15 08:11:53
6382783 ondatel.com 0 No Rank 2012-01-15 08:11:53
6382784 gordonsetters.net 0 No Rank 2012-01-15 08:11:56
6382785 siammix.com 0 No Rank 2012-01-15 08:11:57
6382786 zona972.com 0 No Rank 2012-01-15 08:12:00
6382787 cqtina.com 0 No Rank 2012-01-15 08:12:01
6382788 elkarbi.com 0 8890551 2012-01-15 08:12:02
6382789 gostgroup.ru 0 No Rank 2012-01-15 08:12:03
6382790 bigloo.info 0 No Rank 2012-01-15 08:12:06
6382791 masercon.es 0 No Rank 2012-01-15 08:12:07
6382792 govrumors.com 0 No Rank 2012-01-15 08:12:08
6382793 gpmotorsonline.com 0 16396450 2012-01-15 08:12:14
6382794 legalbcn.es 0 5384725 2012-01-15 08:12:16
6382795 hut-tex.com 0 No Rank 2012-01-15 08:12:17
6382796 grasshopperfashions.com 0 No Rank 2012-01-15 08:12:18
6382797 grand-prc.ru 0 6364341 2012-01-15 08:12:18
6382798 resalty.org 0 No Rank 2012-01-15 08:12:23
6382799 greatbloomers.com 0 14472976 2012-01-15 08:12:23
6382800 greenproducttech.com 0 No Rank 2012-01-15 08:12:23
6382801 gregorycoinc.com 0 No Rank 2012-01-15 08:12:29
6382802 cuasoit.net 0 No Rank 2012-01-15 08:12:29
6382803 pentiuc.com 0 No Rank 2012-01-15 08:12:29
6382804 gringodate.com 0 No Rank 2012-01-15 08:12:29
6382805 us.daxa.net 0 302098 2012-01-15 08:12:33
6382806 grizzlypeakbluegrass.com 0 No Rank 2012-01-15 08:12:34
6382807 jobhill.com 0 10702397 2012-01-15 08:12:37
6382808 harkness.ca 0 23071489 2012-01-15 08:12:39
6382809 loweins.com 0 No Rank 2012-01-15 08:12:44
6382810 grupalotos.pl 0 No Rank 2012-01-15 08:12:45
6382811 inferex.com 0 No Rank 2012-01-15 08:12:47
6382812 rfctrls.com 0 10377983 2012-01-15 08:12:49
6382813 alpackaforeningen.se 0 11767435 2012-01-15 08:12:50
6382814 gsem.com.my 0 22237795 2012-01-15 08:12:51
6382815 grizzlytoolsreview.org 0 11342456 2012-01-15 08:12:51
6382816 zolumns.com 0 7193413 2012-01-15 08:12:54
6382817 ussco.co.nz 0 No Rank 2012-01-15 08:12:57
6382818 rechitsa.by 0 2704676 2012-01-15 08:13:00
6382819 ezathai.org 0 No Rank 2012-01-15 08:13:06
6382820 ragingbad.com 0 9901310 2012-01-15 08:13:09
6382821 handgestricktesocken.info 0 No Rank 2012-01-15 08:13:11
6382822 kayak.of.by 0 43145 2012-01-15 08:13:12
6382823 av-foto.com 0 No Rank 2012-01-15 08:13:14
6382824 liftlock.ca 0 No Rank 2012-01-15 08:13:19
6382825 gunmanforum.com 0 12569900 2012-01-15 08:13:22
6382826 limuzine.by 0 No Rank 2012-01-15 08:13:24
6382827 forums.cuasoit.net 0 No Rank 2012-01-15 08:13:24
6382828 stanoks.com 0 2431061 2012-01-15 08:13:27
6382829 gsr-evo-club.net 0 13907730 2012-01-15 08:13:28
6382830 gurustones.com 0 14652630 2012-01-15 08:13:29
6382831 belveter.by 0 18133368 2012-01-15 08:13:31
6382832 festcamp.by 0 5124145 2012-01-15 08:13:32
6382833 gustavianantiques.com 0 No Rank 2012-01-15 08:13:35
6382834 lkbrest.com 0 No Rank 2012-01-15 08:13:37
6382835 di.dymo.com 0 41918 2012-01-15 08:13:40
6382836 gyee-china.com 0 3973901 2012-01-15 08:13:41
6382837 fat-art.com 0 No Rank 2012-01-15 08:13:44
6382838 novemco.net 0 No Rank 2012-01-15 08:13:49
6382839 haartz.com 0 9184873 2012-01-15 08:13:50
6382840 gyvasmaistas.lt 0 19682032 2012-01-15 08:13:52
6382841 hackerpublicradio.org 0 3775134 2012-01-15 08:13:55
6382842 jenbirn.com 0 23729005 2012-01-15 08:13:56
6382843 aahomes4u.com 0 No Rank 2012-01-15 08:13:58
6382844 hagerstownfun.com 0 21758662 2012-01-15 08:13:58
6382845 loglogr.com 0 No Rank 2012-01-15 08:13:59
6382846 hala-kahiki.com 0 18981169 2012-01-15 08:14:01
6382847 halikilimtamiri.com 0 27459893 2012-01-15 08:14:04
6382848 halpinsflooringgonzales.com 0 9949996 2012-01-15 08:14:06
6382849 big-bio.com 0 12220421 2012-01-15 08:14:08
6382850 peedekk.com 0 No Rank 2012-01-15 08:14:09
6382851 thefsga.com 0 No Rank 2012-01-15 08:14:14
6382852 hangmangame.info 0 No Rank 2012-01-15 08:14:16
6382853 yoginis.com 0 24385770 2012-01-15 08:14:18
6382854 harmonyhorseranch.com 0 17513884 2012-01-15 08:14:22
6382855 hanoigoldenplazahotel.com 0 No Rank 2012-01-15 08:14:26
6382856 eindpunt.nl 0 14952360 2012-01-15 08:14:29
6382857 889tips.com 0 No Rank 2012-01-15 08:14:30
6382858 hawaiiancafe.com 0 11440072 2012-01-15 08:14:31
6382859 ansyu.co.jp 0 No Rank 2012-01-15 08:14:33
6382860 leapfrog.ie 0 No Rank 2012-01-15 08:14:33
6382861 ncstips.com 0 No Rank 2012-01-15 08:14:36
6382862 hawaiiangatherings.com 0 5745263 2012-01-15 08:14:38
6382863 veren.org 0 6615372 2012-01-15 08:14:39
6382864 dilocpa.com 0 16494216 2012-01-15 08:14:43
6382865 idas.org.uk 0 20758085 2012-01-15 08:14:46
6382866 hayashikenzai.com 0 1826694 2012-01-15 08:14:47
6382867 verenum.ch 0 24520905 2012-01-15 08:14:49
6382868 ee-hive.com 0 2144953 2012-01-15 08:14:50
6382869 hb-haircompany.com 0 No Rank 2012-01-15 08:14:52
6382870 povagus.com 0 No Rank 2012-01-15 08:14:52
6382871 muba.com.br 0 No Rank 2012-01-15 08:14:55
6382872 hbestate.com 0 No Rank 2012-01-15 08:14:55
6382873 pc4less.com 0 No Rank 2012-01-15 08:14:58
6382874 hciglobal.com 0 26202522 2012-01-15 08:15:00
6382875 hbjyd.cn 0 No Rank 2012-01-15 08:15:00
6382876 tcwatch.org 0 15087561 2012-01-15 08:15:07
6382877 theasac.com 0 16116672 2012-01-15 08:15:09
6382878 healthbenefitsofprobiotics.com 0 25682827 2012-01-15 08:15:09
6382879 heartoftherockiesre.com 0 No Rank 2012-01-15 08:15:14
6382880 ustbmba.net 0 5789863 2012-01-15 08:15:15
6382881 chh.ufm.edu 0 99176 2012-01-15 08:15:15
6382882 heathcarney.com 0 No Rank 2012-01-15 08:15:18
6382883 khecker.com 0 No Rank 2012-01-15 08:15:18
6382884 isscorp.biz 0 No Rank 2012-01-15 08:15:20
6382885 heavenlyinn.com 0 3926533 2012-01-15 08:15:23
6382886 heatherscottjewellery.com 0 No Rank 2012-01-15 08:15:23
6382887 w-specht.de 0 No Rank 2012-01-15 08:15:25
6382888 lacp.com.au 0 7997288 2012-01-15 08:15:29
6382889 heck-antrieb.de 0 17549108 2012-01-15 08:15:30
6382890 cbegien.com 0 No Rank 2012-01-15 08:15:30
6382891 nordtek.com 0 16396707 2012-01-15 08:15:35
6382892 heijmans-support.nl 0 No Rank 2012-01-15 08:15:36
6382893 rtcasey.com 0 No Rank 2012-01-15 08:15:38
6382894 0338807.netsolhost.com 0 9437 2012-01-15 08:15:38
6382895 jpjnews.com 0 No Rank 2012-01-15 08:15:40
6382896 artrail.com 0 No Rank 2012-01-15 08:15:43
6382897 hemayim.com 0 No Rank 2012-01-15 08:15:43
6382898 hlec.com.pk 0 No Rank 2012-01-15 08:15:45
6382899 hemelingen-marketing.de 0 23652083 2012-01-15 08:15:47
6382900 henkdesmet.be 0 No Rank 2012-01-15 08:15:50
6382901 2thebeliever.com 0 No Rank 2012-01-15 08:15:52
6382902 haddins.com 0 20701735 2012-01-15 08:15:52
6382903 hensleythompson.com 0 11526163 2012-01-15 08:15:53
6382904 griptraining.co.uk 0 15132078 2012-01-15 08:15:56
6382905 heronbay-dentist.com 0 No Rank 2012-01-15 08:16:01
6382906 pasl.com.au 0 3405318 2012-01-15 08:16:02
6382907 twebman.com 0 6599569 2012-01-15 08:16:03
6382908 a-1clean.com 0 No Rank 2012-01-15 08:16:04
6382909 m-l-h-f.com 0 No Rank 2012-01-15 08:16:05
6382910 silanna.com 0 2115425 2012-01-15 08:16:07
6382911 hirvonen.cc 0 No Rank 2012-01-15 08:16:09
6382912 kind.net.au 0 No Rank 2012-01-15 08:16:10
6382913 hiwayunitsmackay.com 0 No Rank 2012-01-15 08:16:10
6382914 hl-villeneuve.fr 0 No Rank 2012-01-15 08:16:16
6382915 veliman.com 0 821253 2012-01-15 08:16:17
6382916 sgsm.edu.au 0 3474813 2012-01-15 08:16:17
6382917 hnhuimei.com 0 11901016 2012-01-15 08:16:19
6382918 hoemancapital.com 0 No Rank 2012-01-15 08:16:21
6382919 adilnor.com 0 No Rank 2012-01-15 08:16:23
6382920 holidays-costa-blanca.net 0 3121503 2012-01-15 08:16:23
6382921 kaider.info 0 16687082 2012-01-15 08:16:26
6382922 alcosiding.com 0 No Rank 2012-01-15 08:16:28
6382923 karnaval.by 0 6412663 2012-01-15 08:16:31
6382924 homewatergardenideas.com 0 17191848 2012-01-15 08:16:32
6382925 horizoncove.com 0 7417308 2012-01-15 08:16:33
6382926 usaparts.by 0 3126043 2012-01-15 08:16:35
6382927 horizongroupusa.com 0 3264394 2012-01-15 08:16:36
6382928 innofast.ca 0 No Rank 2012-01-15 08:16:38
6382929 palmdoc.net 0 1560514 2012-01-15 08:16:39
6382930 hot-relief.com 0 7158187 2012-01-15 08:16:44
6382931 k-i-m.co.jp 0 No Rank 2012-01-15 08:16:45
6382932 rijames.com 0 No Rank 2012-01-15 08:16:47
6382933 pdcp.com.my 0 11082818 2012-01-15 08:16:57
6382934 tenguya.com 0 No Rank 2012-01-15 08:16:57
6382935 mmattys.com 0 No Rank 2012-01-15 08:16:59
6382936 how-to-get-a-website.com 0 6509976 2012-01-15 08:17:00
6382937 dietsup.net 0 4560448 2012-01-15 08:17:03
6382938 a-z-fensterservice.de 0 21367658 2012-01-15 08:17:03
6382939 aikyo.co.jp 0 7661234 2012-01-15 08:17:05
6382940 hscomputerservices.com 0 15972061 2012-01-15 08:17:06
6382941 psycle.info 0 No Rank 2012-01-15 08:17:09
6382942 modarchs.in 0 No Rank 2012-01-15 08:17:10
6382943 bell-lgo.jp 0 No Rank 2012-01-15 08:17:13
6382944 huayang-churui.info 0 No Rank 2012-01-15 08:17:15
6382945 inctech.com 0 12214344 2012-01-15 08:17:16
6382946 alsagereqc.co.uk 0 No Rank 2012-01-15 08:17:19
6382947 game4pc.com 0 No Rank 2012-01-15 08:17:20
6382948 hudsonvalleyscouting.org 0 8552822 2012-01-15 08:17:20
6382949 hokoku.info 0 3542623 2012-01-15 08:17:27
6382950 huedayi.com 0 No Rank 2012-01-15 08:17:29
6382951 isizu.co.jp 0 No Rank 2012-01-15 08:17:30
6382952 knowace.com 0 19578014 2012-01-15 08:17:31
6382953 echomtn.com 0 No Rank 2012-01-15 08:17:32
6382954 hugeassbeers.com 0 No Rank 2012-01-15 08:17:33
6382955 rappa.co.jp 0 No Rank 2012-01-15 08:17:40
6382956 humanistaalfonsoreyes.com 0 No Rank 2012-01-15 08:17:41
6382957 dawte.co.uk 0 No Rank 2012-01-15 08:17:44
6382958 2paws4u.com 0 No Rank 2012-01-15 08:17:47
6382959 rgvctmn.org 0 12773729 2012-01-15 08:17:51
6382960 hurricaneweather.com 0 No Rank 2012-01-15 08:17:55
6382961 prd.clan.su 0 No Rank 2012-01-15 08:17:55
6382962 altenburg-nobitz.de 0 No Rank 2012-01-15 08:17:56
6382963 zajsoft.net 0 12923002 2012-01-15 08:17:57
6382964 acta.org.uk 0 11558651 2012-01-15 08:18:01
6382965 atps.org.uk 0 No Rank 2012-01-15 08:18:02
6382966 algeriaphonebook.com 0 2698672 2012-01-15 08:18:04
6382967 whcarry.com 0 No Rank 2012-01-15 08:18:04
6382968 vervase.com 0 16904574 2012-01-15 08:18:06
6382969 iam2296.org 0 No Rank 2012-01-15 08:18:08
6382970 archielivestock.com 0 No Rank 2012-01-15 08:18:09
6382971 nailfas.com 0 No Rank 2012-01-15 08:18:11
6382972 whhsbio.com 0 No Rank 2012-01-15 08:18:11
6382973 iamactuary.com 0 21440491 2012-01-15 08:18:16
6382974 jljx.com.cn 0 8235775 2012-01-15 08:18:17
6382975 ywjiayi.com 0 No Rank 2012-01-15 08:18:18
6382976 leddream.es 0 16916998 2012-01-15 08:18:21
6382977 iccrice.org 0 No Rank 2012-01-15 08:18:23
6382978 bstweld.com 0 No Rank 2012-01-15 08:18:24
6382979 clydeaw.org 0 10676201 2012-01-15 08:18:25
6382980 ice-jo.com 0 No Rank 2012-01-15 08:18:32
6382981 opt-ron.com 0 7581729 2012-01-15 08:18:33
6382982 qualiau.com 0 No Rank 2012-01-15 08:18:36
6382983 idiotproofblogging.com 0 489325 2012-01-15 08:18:38
6382984 gordtep.com 0 3983794 2012-01-15 08:18:38
6382985 dolytoys.gr 0 25807969 2012-01-15 08:18:43
6382986 pisbedu.com 0 No Rank 2012-01-15 08:18:45
6382987 mattlow.com 0 No Rank 2012-01-15 08:18:50
6382988 azgermanshepherds.com 0 18152539 2012-01-15 08:18:58
6382989 zhjiake.com 0 No Rank 2012-01-15 08:19:00
6382990 awsa.org.au 0 No Rank 2012-01-15 08:19:09
6382991 m-a-t.co.jp 0 7285541 2012-01-15 08:19:12
6382992 jtstorm.com 0 No Rank 2012-01-15 08:19:13
6382993 pc.123go.cn 0 285654 2012-01-15 08:19:20
6382994 xcarlink.by 0 No Rank 2012-01-15 08:19:21
6382995 scyaweb.org 0 No Rank 2012-01-15 08:19:22
6382996 atomizer.gr 0 758515 2012-01-15 08:19:25
6382997 panzura.com 0 1940125 2012-01-15 08:19:31
6382998 funfana.com 0 No Rank 2012-01-15 08:19:33
6382999 xisisky.com 0 No Rank 2012-01-15 08:19:36